Time,TemperatureF,DewpointF,PressureIn,WindDirection,WindDirectionDegrees,WindSpeedMPH,WindSpeedGustMPH,Humidity,HourlyPrecipIn,Conditions,Clouds,dailyrainin,SoftwareType,DateUTC
2013-02-13 00:01:00,46.0,28.0,29.88,SE,146,0.0,-999.0,49,-99.99,,,-99.99,,2013-02-13 08:01:00,
2013-02-13 00:11:00,46.0,28.0,29.88,SE,146,0.0,-999.0,49,-99.99,,,-99.99,,2013-02-13 08:11:00,
2013-02-13 00:21:00,46.0,30.0,29.88,SE,144,0.0,-999.0,53,-99.99,,,-99.99,,2013-02-13 08:21:00,
2013-02-13 00:31:00,46.0,30.0,29.88,SE,142,0.0,-999.0,54,-99.99,,,-99.99,,2013-02-13 08:31:00,
2013-02-13 00:43:00,46.0,30.0,29.88,SE,142,0.0,-999.0,54,-99.99,,,-99.99,,2013-02-13 08:43:00,
2013-02-13 00:52:00,46.0,32.0,29.88,SE,142,0.0,-999.0,58,-99.99,,,-99.99,,2013-02-13 08:52:00,
2013-02-13 01:01:00,46.0,33.0,29.88,SE,142,0.0,-999.0,60,-99.99,,,-99.99,,2013-02-13 09:01:00,
2013-02-13 01:11:00,46.0,33.0,29.88,SE,142,0.0,-999.0,60,-99.99,,,-99.99,,2013-02-13 09:11:00,
2013-02-13 01:21:00,47.0,34.0,29.87,SE,138,0.0,-999.0,61,-99.99,,,-99.99,,2013-02-13 09:21:00,
2013-02-13 01:31:00,47.0,34.0,29.87,SE,137,0.0,-999.0,60,-99.99,,,-99.99,,2013-02-13 09:31:00,
2013-02-13 01:41:00,47.0,34.0,29.87,SE,140,0.0,-999.0,60,-99.99,,,-99.99,,2013-02-13 09:41:00,
2013-02-13 01:52:00,47.0,34.0,29.87,SE,140,0.0,-999.0,60,-99.99,,,-99.99,,2013-02-13 09:52:00,
2013-02-13 02:01:00,46.0,33.0,29.87,SE,140,0.0,-999.0,60,-99.99,,,-99.99,,2013-02-13 10:01:00,
2013-02-13 02:11:00,46.0,33.0,29.87,SE,137,0.0,-999.0,61,-99.99,,,-99.99,,2013-02-13 10:11:00,
2013-02-13 02:21:00,46.0,33.0,29.87,SE,137,0.0,-999.0,61,-99.99,,,-99.99,,2013-02-13 10:21:00,
2013-02-13 02:31:00,46.0,34.0,29.87,SE,136,0.0,-999.0,62,-99.99,,,-99.99,,2013-02-13 10:31:00,
2013-02-13 02:41:00,45.0,33.0,29.87,SE,136,0.0,-999.0,63,-99.99,,,-99.99,,2013-02-13 10:41:00,
2013-02-13 02:51:00,45.0,33.0,29.87,SE,136,0.0,-999.0,63,-99.99,,,-99.99,,2013-02-13 10:51:00,
2013-02-13 03:01:00,45.0,33.0,29.87,SE,136,0.0,-999.0,62,-99.99,,,-99.99,,2013-02-13 11:01:00,
2013-02-13 03:11:00,45.0,33.0,29.87,SE,136,0.0,-999.0,62,-99.99,,,-99.99,,2013-02-13 11:11:00,
2013-02-13 03:22:00,45.0,34.0,29.87,SE,129,0.0,-999.0,65,-99.99,,,-99.99,,2013-02-13 11:22:00,
2013-02-13 03:31:00,46.0,35.0,29.87,ESE,119,2.0,-999.0,64,-99.99,,,-99.99,,2013-02-13 11:31:00,
2013-02-13 03:41:00,47.0,34.0,29.87,ESE,119,2.0,-999.0,60,-99.99,,,-99.99,,2013-02-13 11:41:00,
2013-02-13 03:52:00,47.0,34.0,29.87,ESE,119,2.0,-999.0,60,-99.99,,,-99.99,,2013-02-13 11:52:00,
2013-02-13 04:02:00,47.0,34.0,29.86,SSE,164,2.0,-999.0,61,-99.99,,,-99.99,,2013-02-13 12:02:00,
2013-02-13 04:11:00,47.0,35.0,29.86,ESE,107,1.0,-999.0,62,-99.99,,,-99.99,,2013-02-13 12:11:00,
2013-02-13 04:21:00,47.0,35.0,29.86,ESE,107,1.0,-999.0,62,-99.99,,,-99.99,,2013-02-13 12:21:00,
2013-02-13 04:31:00,46.0,34.0,29.86,East,83,1.0,-999.0,63,-99.99,,,-99.99,,2013-02-13 12:31:00,
2013-02-13 04:42:00,46.0,34.0,29.87,East,92,1.0,-999.0,63,-99.99,,,-99.99,,2013-02-13 12:42:00,
2013-02-13 04:52:00,46.0,34.0,29.87,East,92,1.0,-999.0,63,-99.99,,,-99.99,,2013-02-13 12:52:00,
2013-02-13 05:02:00,46.0,34.0,29.86,ENE,70,0.0,-999.0,63,-99.99,,,-99.99,,2013-02-13 13:02:00,
2013-02-13 05:11:00,46.0,34.0,29.86,East,80,0.0,-999.0,62,-99.99,,,-99.99,,2013-02-13 13:11:00,
2013-02-13 05:21:00,46.0,34.0,29.86,East,80,0.0,-999.0,62,-99.99,,,-99.99,,2013-02-13 13:21:00,
2013-02-13 05:31:00,46.0,34.0,29.86,East,80,0.0,-999.0,62,-99.99,,,-99.99,,2013-02-13 13:31:00,
2013-02-13 05:41:00,44.0,34.0,29.85,SSE,160,0.0,-999.0,67,-99.99,,,-99.99,,2013-02-13 13:41:00,
2013-02-13 05:52:00,44.0,34.0,29.85,SSE,160,0.0,-999.0,67,-99.99,,,-99.99,,2013-02-13 13:52:00,
2013-02-13 06:01:00,43.0,33.0,29.85,SSE,161,0.0,-999.0,68,-99.99,,,-99.99,,2013-02-13 14:01:00,
2013-02-13 06:11:00,43.0,33.0,29.85,SSE,161,0.0,-999.0,68,-99.99,,,-99.99,,2013-02-13 14:11:00,
2013-02-13 06:21:00,43.0,34.0,29.85,SSE,166,0.0,-999.0,69,-99.99,,,-99.99,,2013-02-13 14:21:00,
2013-02-13 06:31:00,43.0,33.0,29.85,South,171,0.0,-999.0,67,-99.99,,,-99.99,,2013-02-13 14:31:00,
2013-02-13 06:41:00,44.0,33.0,29.85,South,171,0.0,-999.0,64,-99.99,,,-99.99,,2013-02-13 14:41:00,
2013-02-13 06:52:00,44.0,33.0,29.85,South,171,0.0,-999.0,64,-99.99,,,-99.99,,2013-02-13 14:52:00,
2013-02-13 07:01:00,44.0,33.0,29.85,South,171,0.0,-999.0,65,-99.99,,,-99.99,,2013-02-13 15:01:00,
2013-02-13 07:11:00,44.0,33.0,29.85,SSE,157,0.0,-999.0,65,-99.99,,,-99.99,,2013-02-13 15:11:00,
2013-02-13 07:21:00,44.0,33.0,29.85,SSE,157,0.0,-999.0,65,-99.99,,,-99.99,,2013-02-13 15:21:00,
2013-02-13 07:31:00,44.0,33.0,29.85,SSE,157,0.0,-999.0,65,-99.99,,,-99.99,,2013-02-13 15:31:00,
2013-02-13 07:41:00,44.0,33.0,29.85,SSE,157,0.0,-999.0,65,-99.99,,,-99.99,,2013-02-13 15:41:00,
2013-02-13 07:52:00,44.0,33.0,29.86,SSE,156,0.0,-999.0,65,-99.99,,,-99.99,,2013-02-13 15:52:00,
2013-02-13 08:01:00,46.0,34.0,29.86,SSE,157,0.0,-999.0,62,-99.99,,,-99.99,,2013-02-13 16:01:00,
2013-02-13 08:11:00,49.0,35.0,29.86,SSE,157,0.0,-999.0,58,-99.99,,,-99.99,,2013-02-13 16:11:00,
2013-02-13 08:21:00,49.0,35.0,29.86,SSE,157,0.0,-999.0,58,-99.99,,,-99.99,,2013-02-13 16:21:00,
2013-02-13 08:31:00,51.0,33.0,29.86,SSE,157,0.0,-999.0,50,-99.99,,,-99.99,,2013-02-13 16:31:00,
2013-02-13 08:41:00,51.0,33.0,29.86,SSE,157,0.0,-999.0,50,-99.99,,,-99.99,,2013-02-13 16:41:00,
2013-02-13 08:52:00,53.0,33.0,29.86,SSE,150,0.0,-999.0,47,-99.99,,,-99.99,,2013-02-13 16:52:00,
2013-02-13 09:01:00,54.0,35.0,29.87,SE,138,0.0,-999.0,49,-99.99,,,-99.99,,2013-02-13 17:01:00,
2013-02-13 09:21:00,54.0,33.0,29.87,SE,131,0.0,-999.0,45,-99.99,,,-99.99,,2013-02-13 17:21:00,
2013-02-13 09:31:00,55.0,33.0,29.87,ESE,111,0.0,-999.0,44,-99.99,,,-99.99,,2013-02-13 17:31:00,
2013-02-13 09:41:00,55.0,33.0,29.87,ESE,111,0.0,-999.0,44,-99.99,,,-99.99,,2013-02-13 17:41:00,
2013-02-13 09:52:00,54.0,34.0,29.88,East,101,0.0,-999.0,46,-99.99,,,-99.99,,2013-02-13 17:52:00,
2013-02-13 10:01:00,54.0,34.0,29.88,ENE,71,0.0,-999.0,47,-99.99,,,-99.99,,2013-02-13 18:01:00,
2013-02-13 10:11:00,54.0,35.0,29.88,ENE,63,0.0,-999.0,48,-99.99,,,-99.99,,2013-02-13 18:11:00,
2013-02-13 10:22:00,54.0,35.0,29.88,ENE,63,0.0,-999.0,48,-99.99,,,-99.99,,2013-02-13 18:22:00,
2013-02-13 10:31:00,54.0,36.0,29.88,East,82,0.0,-999.0,50,-99.99,,,-99.99,,2013-02-13 18:31:00,
2013-02-13 10:41:00,54.0,36.0,29.88,East,82,0.0,-999.0,50,-99.99,,,-99.99,,2013-02-13 18:41:00,
2013-02-13 10:52:00,54.0,35.0,29.88,East,80,0.0,-999.0,49,-99.99,,,-99.99,,2013-02-13 18:52:00,
2013-02-13 11:01:00,55.0,36.0,29.87,NE,45,1.0,-999.0,49,-99.99,,,-99.99,,2013-02-13 19:01:00,
2013-02-13 11:11:00,55.0,36.0,29.87,NE,45,1.0,-999.0,49,-99.99,,,-99.99,,2013-02-13 19:11:00,
2013-02-13 11:21:00,55.0,36.0,29.87,NE,45,1.0,-999.0,49,-99.99,,,-99.99,,2013-02-13 19:21:00,
2013-02-13 11:31:00,55.0,36.0,29.87,NE,45,1.0,-999.0,49,-99.99,,,-99.99,,2013-02-13 19:31:00,
2013-02-13 11:41:00,55.0,36.0,29.87,NE,45,1.0,-999.0,49,-99.99,,,-99.99,,2013-02-13 19:41:00,
2013-02-13 11:52:00,56.0,37.0,29.86,North,360,1.0,-999.0,49,-99.99,,,-99.99,,2013-02-13 19:52:00,
2013-02-13 12:02:00,56.0,38.0,29.85,NNE,30,1.0,-999.0,50,-99.99,,,-99.99,,2013-02-13 20:02:00,
2013-02-13 12:11:00,56.0,38.0,29.85,ENE,61,1.0,-999.0,51,-99.99,,,-99.99,,2013-02-13 20:11:00,
2013-02-13 12:21:00,56.0,38.0,29.85,ENE,61,1.0,-999.0,51,-99.99,,,-99.99,,2013-02-13 20:21:00,
2013-02-13 12:31:00,56.0,39.0,29.84,NE,36,4.0,-999.0,52,-99.99,,,-99.99,,2013-02-13 20:31:00,
2013-02-13 12:41:00,56.0,39.0,29.83,NE,36,1.0,-999.0,52,-99.99,,,-99.99,,2013-02-13 20:41:00,
2013-02-13 12:52:00,56.0,39.0,29.83,NE,36,1.0,-999.0,52,-99.99,,,-99.99,,2013-02-13 20:52:00,
2013-02-13 13:01:00,56.0,40.0,29.83,NNE,32,2.0,-999.0,54,-99.99,,,-99.99,,2013-02-13 21:01:00,
2013-02-13 13:11:00,56.0,40.0,29.83,NNE,32,2.0,-999.0,54,-99.99,,,-99.99,,2013-02-13 21:11:00,
2013-02-13 13:21:00,56.0,40.0,29.83,NNE,29,2.0,-999.0,55,-99.99,,,-99.99,,2013-02-13 21:21:00,
2013-02-13 13:31:00,56.0,40.0,29.82,East,80,1.0,-999.0,55,-99.99,,,-99.99,,2013-02-13 21:31:00,
2013-02-13 13:42:00,57.0,41.0,29.82,ENE,59,2.0,-999.0,56,-99.99,,,-99.99,,2013-02-13 21:42:00,
2013-02-13 13:52:00,57.0,41.0,29.82,ENE,59,2.0,-999.0,56,-99.99,,,-99.99,,2013-02-13 21:52:00,
2013-02-13 14:01:00,57.0,41.0,29.81,ENE,72,1.0,-999.0,56,-99.99,,,-99.99,,2013-02-13 22:01:00,
2013-02-13 14:11:00,56.0,41.0,29.80,ENE,70,0.0,-999.0,58,-99.99,,,-99.99,,2013-02-13 22:11:00,
2013-02-13 14:21:00,56.0,41.0,29.80,ENE,70,0.0,-999.0,58,-99.99,,,-99.99,,2013-02-13 22:21:00,
2013-02-13 14:31:00,56.0,41.0,29.80,ENE,78,0.0,-999.0,58,-99.99,,,-99.99,,2013-02-13 22:31:00,
2013-02-13 14:42:00,56.0,41.0,29.80,ENE,78,0.0,-999.0,58,-99.99,,,-99.99,,2013-02-13 22:42:00,
2013-02-13 14:52:00,56.0,41.0,29.79,NE,43,0.0,-999.0,57,-99.99,,,-99.99,,2013-02-13 22:52:00,
2013-02-13 15:01:00,56.0,40.0,29.79,ENE,65,0.0,-999.0,54,-99.99,,,-99.99,,2013-02-13 23:01:00,
2013-02-13 15:11:00,56.0,43.0,29.79,NE,53,0.0,-999.0,62,-99.99,,,-99.99,,2013-02-13 23:11:00,
2013-02-13 15:21:00,56.0,43.0,29.79,NE,53,0.0,-999.0,62,-99.99,,,-99.99,,2013-02-13 23:21:00,
2013-02-13 15:31:00,56.0,42.0,29.79,NNE,29,1.0,-999.0,60,-99.99,,,-99.99,,2013-02-13 23:31:00,
2013-02-13 15:41:00,56.0,42.0,29.79,NNE,29,1.0,-999.0,60,-99.99,,,-99.99,,2013-02-13 23:41:00,
2013-02-13 15:52:00,55.0,41.0,29.79,NNE,32,1.0,-999.0,59,-99.99,,,-99.99,,2013-02-13 23:52:00,
2013-02-13 16:01:00,55.0,41.0,29.78,ENE,57,1.0,-999.0,59,-99.99,,,-99.99,,2013-02-14 00:01:00,
2013-02-13 16:11:00,55.0,41.0,29.78,ENE,57,1.0,-999.0,59,-99.99,,,-99.99,,2013-02-14 00:11:00,
2013-02-13 16:21:00,54.0,38.0,29.78,NE,49,0.0,-999.0,54,-99.99,,,-99.99,,2013-02-14 00:21:00,
2013-02-13 16:31:00,54.0,38.0,29.78,East,84,0.0,-999.0,55,-99.99,,,-99.99,,2013-02-14 00:31:00,
2013-02-13 16:41:00,54.0,38.0,29.78,East,84,0.0,-999.0,55,-99.99,,,-99.99,,2013-02-14 00:41:00,
2013-02-13 16:52:00,54.0,38.0,29.78,East,84,0.0,-999.0,54,-99.99,,,-99.99,,2013-02-14 00:52:00,
2013-02-13 17:01:00,53.0,37.0,29.78,East,82,0.0,-999.0,54,-99.99,,,-99.99,,2013-02-14 01:01:00,
2013-02-13 17:11:00,53.0,37.0,29.78,East,82,0.0,-999.0,54,-99.99,,,-99.99,,2013-02-14 01:11:00,
2013-02-13 17:21:00,54.0,38.0,29.78,NNE,22,0.0,-999.0,55,-99.99,,,-99.99,,2013-02-14 01:21:00,
2013-02-13 17:31:00,53.0,37.0,29.78,NNE,30,0.0,-999.0,55,-99.99,,,-99.99,,2013-02-14 01:31:00,
2013-02-13 17:41:00,53.0,37.0,29.78,NNE,30,0.0,-999.0,55,-99.99,,,-99.99,,2013-02-14 01:41:00,
2013-02-13 17:51:00,52.0,36.0,29.78,NNE,28,0.0,-999.0,55,-99.99,,,-99.99,,2013-02-14 01:51:00,
2013-02-13 18:01:00,51.0,36.0,29.78,NE,40,0.0,-999.0,57,-99.99,,,-99.99,,2013-02-14 02:01:00,
2013-02-13 18:11:00,50.0,38.0,29.78,NE,40,0.0,-999.0,62,-99.99,,,-99.99,,2013-02-14 02:11:00,
2013-02-13 18:21:00,50.0,38.0,29.78,NE,40,0.0,-999.0,62,-99.99,,,-99.99,,2013-02-14 02:21:00,
2013-02-13 18:31:00,49.0,37.0,29.78,NE,38,0.0,-999.0,64,-99.99,,,-99.99,,2013-02-14 02:31:00,
2013-02-13 18:41:00,49.0,37.0,29.78,NE,38,0.0,-999.0,64,-99.99,,,-99.99,,2013-02-14 02:41:00,
2013-02-13 18:51:00,49.0,37.0,29.78,NE,38,0.0,-999.0,64,-99.99,,,-99.99,,2013-02-14 02:51:00,
2013-02-13 19:02:00,48.0,37.0,29.78,NE,40,0.0,-999.0,65,-99.99,,,-99.99,,2013-02-14 03:02:00,
2013-02-13 19:11:00,49.0,37.0,29.78,NE,40,0.0,-999.0,64,-99.99,,,-99.99,,2013-02-14 03:11:00,
2013-02-13 19:21:00,49.0,37.0,29.78,NE,40,0.0,-999.0,64,-99.99,,,-99.99,,2013-02-14 03:21:00,
2013-02-13 19:31:00,49.0,37.0,29.78,NE,40,0.0,-999.0,64,-99.99,,,-99.99,,2013-02-14 03:31:00,
2013-02-13 19:42:00,49.0,37.0,29.78,NE,40,0.0,-999.0,64,-99.99,,,-99.99,,2013-02-14 03:42:00,
2013-02-13 19:52:00,49.0,37.0,29.78,NE,40,0.0,-999.0,63,-99.99,,,-99.99,,2013-02-14 03:52:00,
2013-02-13 20:01:00,49.0,35.0,29.78,ESE,103,0.0,-999.0,58,-99.99,,,-99.99,,2013-02-14 04:01:00,
2013-02-13 20:11:00,48.0,34.0,29.78,SSE,152,0.0,-999.0,59,-99.99,,,-99.99,,2013-02-14 04:11:00,
2013-02-13 20:21:00,48.0,34.0,29.78,SSE,152,0.0,-999.0,59,-99.99,,,-99.99,,2013-02-14 04:21:00,
2013-02-13 20:31:00,48.0,34.0,29.79,SSE,152,0.0,-999.0,59,-99.99,,,-99.99,,2013-02-14 04:31:00,
2013-02-13 20:41:00,48.0,34.0,29.79,SSE,152,0.0,-999.0,59,-99.99,,,-99.99,,2013-02-14 04:41:00,
2013-02-13 20:51:00,48.0,34.0,29.79,SSE,152,0.0,-999.0,59,-99.99,,,-99.99,,2013-02-14 04:51:00,
2013-02-13 21:01:00,48.0,34.0,29.79,SSE,152,0.0,-999.0,59,-99.99,,,-99.99,,2013-02-14 05:01:00,
2013-02-13 21:11:00,48.0,34.0,29.79,SSE,152,0.0,-999.0,59,-99.99,,,-99.99,,2013-02-14 05:11:00,
2013-02-13 21:22:00,49.0,35.0,29.78,SSE,162,0.0,-999.0,58,-99.99,,,-99.99,,2013-02-14 05:22:00,
2013-02-13 21:32:00,49.0,36.0,29.78,South,175,0.0,-999.0,61,-99.99,,,-99.99,,2013-02-14 05:32:00,
2013-02-13 21:42:00,49.0,36.0,29.78,South,175,0.0,-999.0,61,-99.99,,,-99.99,,2013-02-14 05:42:00,
2013-02-13 21:52:00,49.0,35.0,29.79,South,175,0.0,-999.0,59,-99.99,,,-99.99,,2013-02-14 05:52:00,
2013-02-13 22:01:00,49.0,35.0,29.79,South,173,0.0,-999.0,59,-99.99,,,-99.99,,2013-02-14 06:01:00,
2013-02-13 22:11:00,50.0,36.0,29.79,South,174,0.0,-999.0,58,-99.99,,,-99.99,,2013-02-14 06:11:00,
2013-02-13 22:21:00,50.0,36.0,29.79,South,174,0.0,-999.0,58,-99.99,,,-99.99,,2013-02-14 06:21:00,
2013-02-13 22:31:00,50.0,36.0,29.78,South,174,0.0,-999.0,58,-99.99,,,-99.99,,2013-02-14 06:31:00,
2013-02-13 22:41:00,50.0,36.0,29.78,South,174,0.0,-999.0,58,-99.99,,,-99.99,,2013-02-14 06:41:00,
2013-02-13 22:52:00,50.0,36.0,29.78,South,175,0.0,-999.0,59,-99.99,,,-99.99,,2013-02-14 06:52:00,
2013-02-13 23:01:00,48.0,35.0,29.78,South,175,0.0,-999.0,60,-99.99,,,-99.99,,2013-02-14 07:01:00,
2013-02-13 23:11:00,48.0,35.0,29.78,South,175,0.0,-999.0,60,-99.99,,,-99.99,,2013-02-14 07:11:00,
2013-02-13 23:21:00,48.0,35.0,29.78,South,175,0.0,-999.0,60,-99.99,,,-99.99,,2013-02-14 07:21:00,
2013-02-13 23:31:00,48.0,35.0,29.78,South,174,0.0,-999.0,60,-99.99,,,-99.99,,2013-02-14 07:31:00,
2013-02-13 23:41:00,48.0,35.0,29.78,South,174,0.0,-999.0,60,-99.99,,,-99.99,,2013-02-14 07:41:00,
2013-02-13 23:52:00,47.0,35.0,29.78,South,174,0.0,-999.0,63,-99.99,,,-99.99,,2013-02-14 07:52:00,